K8JMX-13 Weather Reports


time (UTC)temp
C
wind
direction
speed
KPH
gust
KPH
rain 1hr
cm
rain 24hr
cm
rain mn
cm
humidity
%
barometer
mb
20260508153135 14 268 6.4 9.7 0.00 0.00 0.00 48 1012.8
20260508152632 14 277 9.7 12.9 0.00 0.00 0.00 49 1012.6
20260508152127 13 226 3.2 9.7 0.00 0.00 0.00 50 1012.8
20260508151624 13 191 4.8 12.9 0.00 0.00 0.00 51 1012.8
20260508151121 13 227 4.8 6.4 0.00 0.00 0.00 52 1012.9
20260508150619 13 162 1.6 4.8 0.00 0.00 0.00 51 1013.0
20260508150115 13 301 6.4 9.7 0.00 0.00 0.00 52 1013.1
20260508145611 13 215 3.2 4.8 0.00 0.00 0.00 53 1013.2
20260508145107 12 180 1.6 4.8 0.00 0.00 0.00 53 1013.2
20260508144605 12 135 1.6 4.8 0.00 0.00 0.00 53 1013.0
20260508144102 12 213 3.2 4.8 0.00 0.00 0.00 52 1013.1
20260508143559 12 272 3.2 4.8 0.00 0.00 0.00 52 1013.1
20260508143056 12 293 3.2 9.7 0.00 0.00 0.00 52 1013.0
20260508142553 12 199 4.8 6.4 0.00 0.00 0.00 52 1012.9
20260508142050 12 205 1.6 4.8 0.00 0.00 0.00 52 1012.9
20260508141546 12 215 3.2 3.2 0.00 0.00 0.00 53 1013.1
20260508141044 12 238 3.2 6.4 0.00 0.00 0.00 51 1013.0
20260508140541 12 213 3.2 3.2 0.00 0.00 0.00 53 1013.0
20260508140037 12 163 3.2 4.8 0.00 0.00 0.00 52 1013.0
20260508135533 12 288 3.2 11.3 0.00 0.00 0.00 52 1013.0
20260508135029 12 254 1.6 3.2 0.00 0.00 0.00 53 1013.0
20260508134526 12 211 1.6 3.2 0.00 0.00 0.00 52 1013.1
20260508134023 12 168 1.6 4.8 0.00 0.00 0.00 52 1012.9
20260508133520 12 242 3.2 9.7 0.00 0.00 0.00 51 1013.0
20260508133017 12 226 6.4 9.7 0.00 0.00 0.00 52 1012.9
20260508132515 12 211 4.8 6.4 0.00 0.00 0.00 51 1012.9
20260508132012 12 206 1.6 12.9 0.00 0.00 0.00 52 1012.9
20260508131507 12 203 6.4 11.3 0.00 0.00 0.00 52 1013.1
20260508131003 12 292 3.2 4.8 0.00 0.00 0.00 52 1013.0
20260508130501 12 208 4.8 6.4 0.00 0.00 0.00 52 1012.9
20260508125956 11 266 3.2 4.8 0.00 0.00 0.00 53 1012.8
20260508125453 11 224 1.6 4.8 0.00 0.00 0.00 55 1013.1
20260508124951 11 272 4.8 9.7 0.00 0.00 0.00 54 1013.0
20260508124448 11 234 1.6 3.2 0.00 0.00 0.00 54 1012.9
20260508123945 11 217 1.6 4.8 0.00 0.00 0.00 54 1012.6
20260508123444 11 198 1.6 4.8 0.00 0.00 0.00 55 1012.9
20260508122940 11 115 0.0 4.8 0.00 0.00 0.00 56 1012.8
20260508122437 10 150 1.6 4.8 0.00 0.00 0.00 57 1012.9
20260508121934 10 137 1.6 4.8 0.00 0.00 0.00 57 1012.9
20260508121432 10 173 1.6 3.2 0.00 0.00 0.00 58 1012.7
20260508120930 10 177 0.0 6.4 0.00 0.00 0.00 59 1013.0
20260508120427 10 198 3.2 6.4 0.00 0.00 0.00 58 1012.9
20260508115925 10 219 3.2 4.8 0.00 0.00 0.00 59 1013.0
20260508115423 10 178 3.2 4.8 0.00 0.00 0.00 59 1012.9
20260508114919 9 155 1.6 3.2 0.00 0.00 0.00 59 1012.9
20260508114416 9 129 0.0 4.8 0.00 0.00 0.00 60 1012.8
20260508113912 9 173 1.6 4.8 0.00 0.00 0.00 60 1012.8
20260508113410 9 191 3.2 6.4 0.00 0.00 0.00 61 1012.9
20260508112907 8 100 0.0 3.2 0.00 0.00 0.00 62 1012.9
20260508112404 8 170 3.2 3.2 0.00 0.00 0.00 63 1012.8
20260508111901 8 191 1.6 3.2 0.00 0.00 0.00 62 1012.4
20260508111358 8 105 0.0 1.6 0.00 0.00 0.00 63 1012.6
20260508110855 8 112 0.0 3.2 0.00 0.00 0.00 63 1012.6
20260508110353 8 195 3.2 3.2 0.00 0.00 0.00 63 1012.7
20260508105852 8 181 1.6 1.6 0.00 0.00 0.00 64 1012.6
20260508105349 8 107 0.0 1.6 0.00 0.00 0.00 63 1012.4
20260508104846 8 107 0.0 1.6 0.00 0.00 0.00 63 1012.3
20260508104343 8 136 1.6 1.6 0.00 0.00 0.00 63 1012.3
20260508103840 7 120 1.6 3.2 0.00 0.00 0.00 65 1012.2
20260508103337 7 103 0.0 1.6 0.00 0.00 0.00 64 1012.2
20260508102835 7 95 0.0 1.6 0.00 0.00 0.00 64 1012.2
20260508102333 7 106 0.0 3.2 0.00 0.00 0.00 63 1012.1
20260508101829 7 102 0.0 0.0 0.00 0.00 0.00 64 1012.0
20260508101327 7 112 0.0 0.0 0.00 0.00 0.00 63 1012.1
20260508100824 7 116 0.0 0.0 0.00 0.00 0.00 64 1012.0
20260508100323 7 96 0.0 0.0 0.00 0.00 0.00 64 1012.1
20260508095818 7 98 0.0 0.0 0.00 0.00 0.00 64 1011.9
20260508095316 7 139 0.0 0.0 0.00 0.00 0.00 64 1012.0
20260508094813 7 98 0.0 0.0 0.00 0.00 0.00 65 1012.0
20260508094310 7 105 0.0 0.0 0.00 0.00 0.00 64 1012.1
20260508093807 7 107 0.0 0.0 0.00 0.00 0.00 64 1012.0
20260508093304 7 99 0.0 0.0 0.00 0.00 0.00 64 1012.0
20260508092801 8 104 0.0 0.0 0.00 0.00 0.00 64 1012.3
20260508092259 8 103 0.0 0.0 0.00 0.00 0.00 64 1012.0
20260508091757 8 136 1.6 3.2 0.00 0.00 0.00 65 1012.1
20260508091253 8 100 0.0 0.0 0.00 0.00 0.00 64 1012.1
20260508090751 7 93 0.0 0.0 0.00 0.00 0.00 65 1012.2
20260508090249 7 95 0.0 0.0 0.00 0.00 0.00 65 1012.4
20260508085745 7 90 0.0 0.0 0.00 0.00 0.00 69 1012.0
20260508085242 7 94 0.0 0.0 0.00 0.00 0.00 68 1012.3
20260508084737 7 92 0.0 0.0 0.00 0.00 0.00 68 1012.0
20260508084236 7 91 0.0 0.0 0.00 0.00 0.00 69 1012.2
20260508083733 7 95 0.0 0.0 0.00 0.00 0.00 71 1012.2
20260508083230 6 78 0.0 0.0 0.00 0.00 0.00 75 1012.2
20260508082725 7 78 0.0 0.0 0.00 0.00 0.00 75 1012.2
20260508082223 7 80 0.0 0.0 0.00 0.00 0.00 75 1011.9
20260508081720 7 101 0.0 0.0 0.00 0.00 0.00 75 1012.0
20260508081216 7 85 0.0 0.0 0.00 0.00 0.00 74 1012.2
20260508080714 7 93 0.0 0.0 0.00 0.00 0.00 73 1012.1
20260508080212 7 95 0.0 0.0 0.00 0.00 0.00 74 1012.3
20260508075708 7 107 0.0 0.0 0.00 0.00 0.00 74 1012.1
20260508075205 7 100 0.0 0.0 0.00 0.00 0.00 74 1012.1
20260508074703 7 99 0.0 0.0 0.00 0.00 0.00 74 1012.2
20260508074200 8 88 0.0 0.0 0.00 0.00 0.00 73 1012.3
20260508073657 8 90 0.0 0.0 0.00 0.00 0.00 73 1012.7
20260508073155 8 95 0.0 0.0 0.00 0.00 0.00 72 1012.2
20260508072650 8 91 0.0 0.0 0.00 0.00 0.00 72 1012.3
20260508072148 8 97 0.0 0.0 0.00 0.00 0.00 71 1012.4
20260508071645 8 83 0.0 0.0 0.00 0.00 0.00 68 1012.6
20260508071143 8 83 0.0 0.0 0.00 0.00 0.00 68 1012.7
20260508070640 9 100 0.0 0.0 0.00 0.00 0.00 68 1012.9
20260508070139 9 88 0.0 0.0 0.00 0.00 0.00 67 1012.8
20260508065635 9 89 0.0 0.0 0.00 0.00 0.00 66 1012.8
20260508065133 9 81 0.0 0.0 0.00 0.00 0.00 64 1012.7
20260508064631 10 81 0.0 0.0 0.00 0.00 0.00 63 1012.8
20260508064129 10 81 0.0 0.0 0.00 0.00 0.00 62 1013.1
20260508063626 10 85 0.0 0.0 0.00 0.00 0.00 62 1012.9
20260508063124 10 47 0.0 1.6 0.00 0.00 0.00 62 1013.0
20260508062621 10 68 0.0 0.0 0.00 0.00 0.00 62 1013.2
20260508062118 10 53 1.6 1.6 0.00 0.00 0.00 60 1013.2
20260508061615 10 52 0.0 0.0 0.00 0.00 0.00 60 1013.1
20260508061112 10 60 0.0 1.6 0.00 0.00 0.00 60 1013.1
20260508060609 10 12 3.2 4.8 0.00 0.00 0.00 57 1013.2
20260508060107 10 354 1.6 3.2 0.00 0.00 0.00 54 1013.1
20260508055602 10 1 0.0 1.6 0.00 0.00 0.00 55 1012.9
20260508055059 10 85 0.0 0.0 0.00 0.00 0.00 57 1012.9
20260508054555 10 105 0.0 0.0 0.00 0.00 0.00 56 1012.7
20260508054053 10 96 0.0 0.0 0.00 0.00 0.00 56 1012.6
20260508053549 10 97 0.0 0.0 0.00 0.00 0.00 56 1012.7
20260508053048 10 100 0.0 1.6 0.00 0.00 0.00 57 1012.7
20260508052545 10 85 0.0 0.0 0.00 0.00 0.00 57 1012.3
20260508052041 10 101 0.0 1.6 0.00 0.00 0.00 56 1012.6
20260508051538 10 117 0.0 0.0 0.00 0.00 0.00 57 1012.8
20260508051033 10 104 0.0 0.0 0.00 0.00 0.00 59 1012.8
20260508050529 10 110 0.0 0.0 0.00 0.00 0.00 59 1012.6
20260508050027 9 109 0.0 0.0 0.00 0.00 0.00 59 1012.7
20260508045523 9 99 0.0 0.0 0.00 0.00 0.00 62 1012.8
20260508045021 9 90 0.0 0.0 0.00 0.00 0.00 62 1012.8
20260508044518 10 90 0.0 0.0 0.00 0.00 0.00 62 1012.9
20260508044014 10 92 0.0 0.0 0.00 0.00 0.00 60 1012.9
20260508043510 9 95 0.0 1.6 0.00 0.00 0.00 61 1012.9
20260508043007 9 74 0.0 0.0 0.00 0.00 0.00 63 1012.8
20260508042504 9 84 0.0 0.0 0.00 0.00 0.00 62 1013.0
20260508042001 9 91 0.0 0.0 0.00 0.00 0.00 62 1012.9
20260508041458 9 93 0.0 0.0 0.00 0.00 0.00 63 1013.0
20260508040955 8 88 0.0 0.0 0.00 0.00 0.00 63 1012.8
20260508040452 8 80 0.0 0.0 0.00 0.00 0.00 65 1012.8
20260508035949 8 79 0.0 0.0 0.00 0.00 0.00 64 1012.8
20260508035446 8 79 0.0 0.0 0.00 0.00 0.00 61 1012.9
20260508034943 9 79 0.0 0.0 0.00 0.00 0.00 65 1012.9
20260508034441 9 84 0.0 0.0 0.00 0.00 0.00 64 1012.8
20260508033937 9 98 0.0 0.0 0.00 0.00 0.00 60 1012.7
20260508033435 10 79 0.0 0.0 0.00 0.00 0.00 60 1012.7
20260508032932 10 78 0.0 0.0 0.00 0.00 0.00 59 1012.6
20260508032430 10 77 0.0 0.0 0.00 0.00 0.00 59 1012.8
20260508031926 9 85 0.0 0.0 0.00 0.00 0.00 58 1013.0
20260508031424 8 79 0.0 0.0 0.00 0.00 0.00 61 1012.8
20260508030919 8 78 0.0 0.0 0.00 0.00 0.00 63 1012.7
20260508030416 8 82 0.0 0.0 0.00 0.00 0.00 63 1012.8
20260508025913 8 94 0.0 0.0 0.00 0.00 0.00 61 1012.8
20260508025410 8 89 0.0 0.0 0.00 0.00 0.00 64 1012.8
20260508024907 8 90 0.0 0.0 0.00 0.00 0.00 62 1012.9
20260508024404 8 84 0.0 0.0 0.00 0.00 0.00 62 1012.8
20260508023900 8 84 0.0 0.0 0.00 0.00 0.00 61 1012.7
20260508023357 8 88 0.0 0.0 0.00 0.00 0.00 61 1013.0
20260508022854 8 85 0.0 0.0 0.00 0.00 0.00 62 1012.8
20260508022349 8 91 0.0 0.0 0.00 0.00 0.00 62 1012.7
20260508021847 8 90 0.0 0.0 0.00 0.00 0.00 60 1012.7
20260508021343 9 85 0.0 0.0 0.00 0.00 0.00 61 1012.8
20260508020839 9 81 0.0 0.0 0.00 0.00 0.00 61 1012.7
20260508020337 9 82 0.0 0.0 0.00 0.00 0.00 60 1013.0
20260508015834 9 83 0.0 0.0 0.00 0.00 0.00 59 1012.8
20260508015332 10 87 0.0 0.0 0.00 0.00 0.00 57 1012.8
20260508014828 10 88 0.0 0.0 0.00 0.00 0.00 56 1012.7
20260508014326 10 87 0.0 0.0 0.00 0.00 0.00 55 1012.7
20260508013826 10 87 0.0 0.0 0.00 0.00 0.00 54 1012.9
20260508013323 10 87 0.0 0.0 0.00 0.00 0.00 53 1012.9
20260508012820 10 88 0.0 0.0 0.00 0.00 0.00 54 1012.8
20260508012317 10 88 0.0 0.0 0.00 0.00 0.00 52 1012.6
20260508011815 10 86 0.0 0.0 0.00 0.00 0.00 51 1012.4
20260508011312 11 86 0.0 0.0 0.00 0.00 0.00 50 1012.7
20260508010809 11 86 0.0 0.0 0.00 0.00 0.00 50 1012.4
20260508010307 11 89 0.0 0.0 0.00 0.00 0.00 50 1012.3
20260508005804 11 90 0.0 0.0 0.00 0.00 0.00 50 1012.6
20260508005300 11 93 0.0 0.0 0.00 0.00 0.00 51 1012.2
20260508004756 11 93 0.0 0.0 0.00 0.00 0.00 49 1012.4
20260508004253 12 81 0.0 0.0 0.00 0.00 0.00 47 1012.2
20260508003749 12 316 1.6 1.6 0.00 0.00 0.00 45 1012.3
20260508003247 12 88 0.0 1.6 0.00 0.00 0.00 44 1012.2
20260508002743 12 47 0.0 1.6 0.00 0.00 0.00 43 1012.2
20260508002241 13 53 0.0 1.6 0.00 0.00 0.00 42 1012.2
20260508001736 13 28 1.6 1.6 0.00 0.00 0.00 42 1012.2
20260508001231 13 65 0.0 0.0 0.00 0.00 0.00 40 1012.1
20260508000728 14 49 0.0 0.0 0.00 0.00 0.00 39 1012.0
20260508000227 14 53 0.0 3.2 0.00 0.00 0.00 40 1012.0
20260507235722 14 29 1.6 1.6 0.00 0.00 0.00 38 1011.8
20260507235219 14 237 1.6 3.2 0.00 0.00 0.00 39 1012.1
20260507234716 14 348 0.0 3.2 0.00 0.00 0.00 39 1012.0
20260507234213 15 300 3.2 4.8 0.00 0.00 0.00 38 1011.9
20260507233709 15 70 1.6 4.8 0.00 0.00 0.00 38 1011.9
20260507233208 15 331 3.2 3.2 0.00 0.00 0.00 38 1012.0
20260507232704 15 350 3.2 4.8 0.00 0.00 0.00 37 1011.9
20260507232201 15 246 3.2 4.8 0.00 0.00 0.00 37 1012.1
20260507231658 15 71 0.0 9.7 0.00 0.00 0.00 38 1012.0
20260507231155 15 23 4.8 6.4 0.00 0.00 0.00 37 1011.8
20260507230651 15 216 4.8 6.4 0.00 0.00 0.00 36 1011.8
20260507230149 15 352 3.2 4.8 0.00 0.00 0.00 36 1012.0
20260507225648 15 353 3.2 4.8 0.00 0.00 0.00 37 1012.1
20260507225145 13 277 4.8 6.4 0.00 0.00 0.00 40 1012.0
20260507224641 14 22 1.6 6.4 0.00 0.00 0.00 40 1012.3
20260507224138 14 50 1.6 9.7 0.00 0.00 0.00 39 1012.1
20260507223634 15 37 4.8 9.7 0.00 0.00 0.00 37 1012.1
20260507223131 16 2 4.8 6.4 0.00 0.00 0.00 36 1012.1
20260507222628 14 311 3.2 6.4 0.00 0.00 0.00 38 1012.1
20260507222124 15 67 1.6 4.8 0.00 0.00 0.00 38 1012.2
20260507221620 15 357 1.6 3.2 0.00 0.00 0.00 39 1012.3
20260507221117 15 325 4.8 11.3 0.00 0.00 0.00 37 1012.3
20260507220614 16 320 1.6 14.5 0.00 0.00 0.00 35 1012.3
20260507220112 15 31 4.8 6.4 0.00 0.00 0.00 36 1012.2
20260507215608 15 14 6.4 11.3 0.00 0.00 0.00 36 1012.1
20260507215106 15 325 1.6 9.7 0.00 0.00 0.00 37 1012.0
20260507214603 15 348 3.2 11.3 0.00 0.00 0.00 36 1011.8
20260507214059 16 108 4.8 9.7 0.00 0.00 0.00 34 1012.1
20260507213555 15 338 3.2 12.9 0.00 0.00 0.00 36 1012.0
20260507213052 16 307 8.0 12.9 0.00 0.00 0.00 34 1012.0
20260507212548 15 59 3.2 6.4 0.00 0.00 0.00 37 1011.8
20260507212045 17 87 6.4 9.7 0.00 0.00 0.00 34 1011.8
20260507211542 15 4 3.2 6.4 0.00 0.00 0.00 37 1011.7
20260507211038 16 36 6.4 12.9 0.00 0.00 0.00 37 1011.7
20260507210535 15 34 1.6 6.4 0.00 0.00 0.00 35 1011.8
20260507210032 15 343 6.4 11.3 0.00 0.00 0.00 36 1012.0
20260507205529 15 296 3.2 12.9 0.00 0.00 0.00 37 1012.0
20260507205025 15 265 3.2 14.5 0.00 0.00 0.00 37 1011.8
20260507204521 14 56 3.2 9.7 0.00 0.00 0.00 38 1011.9
20260507204019 14 18 9.7 14.5 0.00 0.00 0.00 38 1011.8
20260507203517 15 53 4.8 16.1 0.00 0.00 0.00 38 1011.9
20260507203014 15 283 4.8 9.7 0.00 0.00 0.00 39 1011.8
20260507202509 15 354 4.8 6.4 0.00 0.00 0.00 39 1011.6
20260507202006 15 92 1.6 12.9 0.00 0.00 0.00 39 1011.7
20260507201502 15 52 11.3 16.1 0.00 0.00 0.00 40 1011.8
20260507200958 15 300 3.2 11.3 0.00 0.00 0.00 38 1012.0
20260507200454 15 129 6.4 11.3 0.00 0.00 0.00 36 1011.9
20260507195949 15 100 1.6 9.7 0.00 0.00 0.00 39 1012.0
20260507195447 15 85 6.4 14.5 0.00 0.00 0.00 39 1011.8
20260507194945 15 280 3.2 6.4 0.00 0.00 0.00 40 1011.8
20260507194441 15 274 4.8 12.9 0.00 0.00 0.00 39 1012.0
20260507193937 14 269 4.8 11.3 0.00 0.00 0.00 40 1011.9
20260507193434 15 3 9.7 14.5 0.00 0.00 0.00 40 1012.0
20260507192931 15 283 6.4 12.9 0.00 0.00 0.00 39 1012.1
20260507192427 15 239 6.4 14.5 0.00 0.00 0.00 41 1012.0
20260507191924 15 249 9.7 20.9 0.00 0.00 0.00 41 1012.1
20260507191420 15 272 6.4 12.9 0.00 0.00 0.00 41 1011.8
20260507190916 15 343 3.2 9.7 0.00 0.00 0.00 40 1012.0
20260507190414 15 276 8.0 12.9 0.00 0.00 0.00 41 1011.9
20260507185913 14 34 4.8 11.3 0.00 0.00 0.00 42 1012.1
20260507185410 14 337 11.3 14.5 0.00 0.00 0.00 41 1012.2
20260507184907 14 223 12.9 17.7 0.00 0.00 0.00 41 1012.0
20260507184405 15 254 6.4 12.9 0.00 0.00 0.00 41 1012.2
20260507183902 15 250 9.7 14.5 0.00 0.00 0.00 40 1012.1
20260507183359 14 325 9.7 20.9 0.00 0.00 0.00 41 1012.2
20260507182856 14 284 11.3 17.7 0.00 0.00 0.00 42 1012.1
20260507182351 13 250 12.9 20.9 0.00 0.00 0.00 42 1012.2
20260507181848 13 262 9.7 22.5 0.00 0.00 0.00 41 1012.2
20260507181344 15 232 8.0 14.5 0.00 0.00 0.00 41 1012.3
20260507180841 14 267 6.4 16.1 0.00 0.00 0.00 42 1012.1
20260507180338 15 223 4.8 12.9 0.00 0.00 0.00 42 1012.2
20260507175833 14 2 6.4 12.9 0.00 0.00 0.00 42 1012.1
20260507175331 15 290 9.7 12.9 0.00 0.00 0.00 42 1012.1
20260507174828 13 313 8.0 14.5 0.00 0.00 0.00 43 1012.2
20260507174326 14 52 8.0 11.3 0.00 0.00 0.00 43 1012.4
20260507173823 13 174 4.8 14.5 0.00 0.00 0.00 44 1012.4
20260507173320 13 281 3.2 6.4 0.00 0.00 0.00 42 1012.6
20260507172816 13 248 11.3 14.5 0.00 0.00 0.00 41 1012.6
20260507172313 13 322 9.7 12.9 0.00 0.00 0.00 43 1012.7
20260507171809 13 333 8.0 12.9 0.00 0.00 0.00 44 1012.8
20260507171306 13 313 8.0 16.1 0.00 0.00 0.00 43 1012.9
20260507170803 13 68 1.6 9.7 0.00 0.00 0.00 45 1013.0
20260507170259 12 282 14.5 20.9 0.00 0.00 0.00 44 1013.0
20260507165755 13 333 4.8 11.3 0.00 0.00 0.00 43 1013.0
20260507165251 13 266 11.3 17.7 0.00 0.00 0.00 43 1013.0
20260507164747 13 287 8.0 12.9 0.00 0.00 0.00 42 1013.2
20260507164245 12 287 3.2 9.7 0.00 0.00 0.00 43 1013.2
20260507163742 12 256 9.7 20.9 0.00 0.00 0.00 45 1013.2
20260507163240 12 266 9.7 14.5 0.00 0.00 0.00 44 1013.1
20260507162735 12 312 6.4 9.7 0.00 0.00 0.00 43 1013.1
20260507162232 12 22 8.0 16.1 0.00 0.00 0.00 43 1013.1
20260507161729 12 11 3.2 11.3 0.00 0.00 0.00 43 1013.2
20260507161225 12 288 6.4 11.3 0.00 0.00 0.00 43 1012.9
20260507160721 12 275 12.9 14.5 0.00 0.00 0.00 45 1012.9
20260507160218 12 248 9.7 16.1 0.00 0.00 0.00 45 1013.0
20260507155713 12 294 9.7 14.5 0.00 0.00 0.00 44 1013.0
20260507155210 12 304 4.8 6.4 0.00 0.00 0.00 45 1013.0
20260507154706 12 310 3.2 4.8 0.00 0.00 0.00 46 1012.9
20260507154204 11 10 8.0 14.5 0.00 0.00 0.00 42 1013.0
20260507153700 12 260 9.7 11.3 0.00 0.00 0.00 43 1012.9